Skip Page Navigation
NASA JPL Caltech
NASA Logo - Jet Propulsion Laboratory + View the NASA Portal
+ Center for Near-Earth Object Studies
JPL Home Earth Solar System Stars & Galaxies Technology
JPL Solar System Dynamics
BODIES ORBITS EPHEMERIDES TOOLS PHYSICAL DATA DISCOVERY FAQ SITE MAP
IMPORTANT: The SSD Announcement email list is now available. Major changes are coming in the near future, including possible hostname and/or URL changes. To be notified of such changes, subscribe to this email list.

Please visit this page for more details.


JPL Small-Body Database Browser
Search: [ help ]  
357037 (2000 NU23)
Classification: Mars-crossing Asteroid          SPK-ID: 2357037
Ephemeris | Orbit Diagram | Orbital Elements | Mission Design | Physical Parameters | Discovery Circumstances | Close-Approach Data ]

[ show orbit diagram ]
Orbital Elements at Epoch 2458600.5 (2019-Apr-27.0) TDB
Reference: JPL 5 (heliocentric ecliptic J2000)
 Element Value Uncertainty (1-sigma)   Units 
e .3418122035692717 6.6978e-08  
a 2.35851257066718 9.9185e-09 au
q 1.552344191741604 1.6004e-07 au
i 8.564249398560747 9.2597e-06 deg
node 308.0526712397016 4.4924e-05 deg
peri 38.17851505178189 4.6321e-05 deg
M 48.71997215610536 1.2991e-05 deg
tp 2458421.455802640143
(2018-Oct-29.95580264)
4.7016e-05 TDB
period 1322.987436097522
3.62
8.3456e-06
2.285e-08
d
yr
n .2721114276503706 1.7165e-09 deg/d
Q 3.164680949592756 1.3309e-08 au
  Orbit Determination Parameters
   # obs. used (total)      184  
   data-arc span      6575 days (18.00 yr)  
   first obs. used      2000-07-05  
   last obs. used      2018-07-06  
   planetary ephem.      DE431  
   SB-pert. ephem.      SB431-N16  
   condition code      0  
   norm. resid. RMS      .47729  
   source      ORB  
   producer      Otto Matic  
   solution date      2019-Jul-13 04:16:45  

Additional Information
 Earth MOID = .554234 au 
 Jupiter MOID = 2.29164 au 
 T_jup = 3.457 
[ show covariance matrix ]

Ephemeris | Orbit Diagram | Orbital Elements | Mission Design | Physical Parameters | Discovery Circumstances | Close-Approach Data ]

Physical Parameter Table
Parameter Symbol Value Units Sigma Reference Notes
absolute magnitude H 17.1   n/a MPO368416  

357037 (2000 NU23)          Discovered 2000-Jul-05 by LONEOS at Anderson Mesa
Reference: 20130327/Numbers.arcLast Updated: 2013-03-29

[ show close-approach data ]
Ephemeris | Orbit Diagram | Orbital Elements | Mission Design | Physical Parameters | Discovery Circumstances | Close-Approach Data ]
ABOUT SSD CREDITS/AWARDS PRIVACY/COPYRIGHT GLOSSARY LINKS
FirstGov 2019-Dec-07 14:30 UT
(server date/time)  
NASA Home Page
Site Manager:   Ryan S. Park
Webmaster  Alan B. Chamberlin